Location: Göttingen
(51.5413°N, 9.9158°E)
Time: 16:59:38
(UTC+02:00)

BEESAT - Pass Details

Date: 07 July 2022
Orbit: 700 x 706 km, 98.6° (Epoch: 13 August)

Event Time Altitude Azimuth Distance (km) Brightness Sun altitude
Rises 00:10:16 0° 1° (N) 3,109 ? -14.0°
Reaches altitude 10° 00:14:54 10° 319° (NW) 2,186 ? -14.3°
Maximum altitude 00:15:28 10° 312° (NW) 2,172 ? -14.3°
Drops below altitude 10° 00:16:02 10° 305° (NW) 2,185 ? -14.3°
Sets 00:20:39 0° 264° (W) 3,099 ? -14.5°
